This is the latest recevied weather packets stored in our database for station/object W8AN. If no packets are shown the sender has not sent any weather packets the latest 10 day(s).
| Time | Temp. | Humidity | Pressure | Rain* | Wind** | Luminosity | Snow |
|---|---|---|---|---|---|---|---|
| 1777509065 | 9.44° C | 83% | 4266.3 hPa | 0 mm | - | 0 W/m² | - |
| 1777508761 | 9.44° C | 83% | 4265.9 hPa | 0 mm | - | 0 W/m² | - |
| 1777508459 | 9.44° C | 83% | 4265.8 hPa | 0 mm | - | 0 W/m² | - |
| 1777508156 | 9.44° C | 83% | 4266 hPa | 0 mm | - | 0 W/m² | - |
| 1777507852 | 9.44° C | 83% | 4265.9 hPa | 0 mm | - | 0 W/m² | - |
| 1777507550 | 9.44° C | 83% | 4265.9 hPa | 0 mm | - | 0 W/m² | - |
| 1777507246 | 9.44° C | 83% | 4265.9 hPa | 0 mm | - | 2 W/m² | - |
| 1777506944 | 9.44° C | 82% | 4265.7 hPa | 0 mm | - | 2 W/m² | - |
| 1777506641 | 9.44° C | 82% | 4265.9 hPa | 0 mm | - | 3 W/m² | - |
| 1777506337 | 9.44° C | 82% | 4265.7 hPa | 0 mm | - | 5 W/m² | - |
| 1777506033 | 9.44° C | 82% | 4265.6 hPa | 0 mm | - | 13 W/m² | - |
| 1777505728 | 9.44° C | 82% | 4265.6 hPa | 0 mm | - | 16 W/m² | - |
| 1777505427 | 10° C | 82% | 4265.8 hPa | 0 mm | - | 20 W/m² | - |
| 1777505122 | 9.44° C | 81% | 4265.6 hPa | 0 mm | - | 20 W/m² | - |
| 1777504820 | 10° C | 82% | 4265.8 hPa | 0 mm | - | 35 W/m² | - |
| 1777504516 | 10° C | 82% | 4265.7 hPa | 0 mm | - | 29 W/m² | - |
| 1777504212 | 10° C | 82% | 4265.5 hPa | 0 mm | - | 38 W/m² | - |
| 1777503908 | 10° C | 82% | 4265.5 hPa | 0 mm | - | 58 W/m² | - |
| 1777503604 | 10° C | 82% | 4265.8 hPa | 0 mm | - | 72 W/m² | - |
| 1777503302 | 10° C | 82% | 4265.5 hPa | 0 mm | - | 71 W/m² | - |
| 1777502997 | 10° C | 82% | 4265.9 hPa | 0 mm | - | 61 W/m² | - |
| 1777502695 | 10° C | 81% | 4265.6 hPa | 0 mm | - | 58 W/m² | - |
| 1777502392 | 10° C | 81% | 4265.7 hPa | 0 mm | - | 40 W/m² | - |
| 1777502089 | 10° C | 81% | 4265.6 hPa | 1.27 mm | - | 53 W/m² | - |
| 1777501786 | 10° C | 80% | 4265.8 hPa | 1.27 mm | - | 42 W/m² | - |
* Rain latest hour (hover to see other rain measurements)
** Current wind speed in m/s (hover to see current wind gust speed)